Regional Weather Roundup
Issued by NWS

Home | Current Version | Previous Version | Text Only | Print | Product List | Glossary On
Versions: 1 2 3 4 5 6 7 8 9 10 11 12 13 14 15 16 17 18 19 20 21 22 23 24 25 26 27 28 29 30 31 32 33 34 35 36 37 38 39 40 41 42 43 44 45 46 47 48 49 50
000
ASUS44 KFWD 192101
RWRTX
NORTH TEXAS HOURLY WEATHER ROUNDUP
NATIONAL WEATHER SERVICE FORT WORTH TX
300 PM CST SUN NOV 19 2017

NOTE: "FAIR" INDICATES FEW OR NO CLOUDS BELOW 12,000 FEET WITH NO
SIGNIFICANT WEATHER AND/OR OBSTRUCTIONS TO VISIBILITY.

TXZ118-119-192200-
DALLAS/FORT WORTH METROPLEX

CITY           SKY/WX    TMP DP  RH WIND       PRES   REMARKS
DFW AIRPORT    PTSUNNY   61  26  26 VRB5      30.25F
DALLAS LOVE    PTSUNNY   63  26  24 W6        30.26F
FTW MEACHAM    SUNNY     63  27  25 VRB5      30.25F
DAL-EXECUTIVE  SUNNY     61  25  25 N5        30.25F
FTW-ALLIANCE   PTSUNNY   61  26  26 NE3       30.26F
FTW-NAS-JRB    PTSUNNY   63  24  22 CALM      30.26F
FTW-SPINKS     SUNNY     61  25  25 CALM      30.28F
ARLINGTON      SUNNY     61  26  26 NW3       30.26F
ADDISON        SUNNY     59  25  27 SW3       30.26F
MESQUITE       SUNNY     61  25  25 NW5       30.27F
LANCASTER      SUNNY     60  25  25 N6        30.27F
$$

TXZ091>094-102>105-117-120-121-131>134-192200-
NORTH CENTRAL TEXAS

CITY           SKY/WX    TMP DP  RH WIND       PRES   REMARKS
SHRMAN/DENISON NOT AVBL
BOWIE          SUNNY     61  24  24 S10       30.25F
DECATUR        SUNNY     60  26  26 S5        30.24F
DENTON         SUNNY     60  28  29 SE5       30.26F
MCKINNEY       SUNNY     61  22  22 VRB3      30.25F
BONHAM         SUNNY    N/A N/A N/A E5        30.26S
ROCKWALL       SUNNY     62  27  26 E5        30.26F
TERRELL        SUNNY     63  24  22 NE8       30.26F
WAXAHACHIE     SUNNY     60  31  33 CALM      30.27F
CLEBURNE       SUNNY     61  25  25 CALM      30.27F
GRANBURY       SUNNY     62  27  26 E3        30.27F
$$

TXZ083>090-098>101-113>116-127>130-139>142-154-155-192200-
WESTERN NORTH TEXAS

CITY           SKY/WX    TMP DP  RH WIND       PRES   REMARKS
WICHITA FALLS  SUNNY     61  21  21 S9        30.24F
WF-KICKAPOO    SUNNY     61  21  22 SW5       30.28F
VERNON         SUNNY     64   7  10 S7        30.24F
ABILENE        SUNNY     58  26  29 S3        30.25F
ABILENE-DYESS  SUNNY     60  28  30 S6          N/A
GRAHAM           N/A     61  25  24 CALM      30.25F
BRECKENRIDGE   SUNNY     63  20  19 W3        30.25F HAZE
CISCO          SUNNY     61  21  21 S7        30.26F
EASTLAND       SUNNY     60  22  23 CALM      30.25F
RANGER         SUNNY     61  25  26 CALM      30.26F
MINERAL WELLS  SUNNY     61  23  23 NW3       30.24F
STEPHENVILLE   SUNNY     61  24  24 CALM      30.27F
COMANCHE       MOSUNNY   58  28  31 CALM      30.27F
COLEMAN        MOSUNNY   59  26  28 S7        30.26F
$$

TXZ143>147-156>162-174-175-192200-
CENTRAL TEXAS

CITY           SKY/WX    TMP DP  RH WIND       PRES   REMARKS
WACO           MOSUNNY   61  28  28 NW5       30.27F
WACO-TSTC      SUNNY     63  27  25 N5        30.27F
WACO-MCGREGOR  PTSUNNY   62  29  28 N9        30.27F
HILLSBORO      SUNNY     61  28  28 CALM      30.26F
CORSICANA      SUNNY     62  26  25 VRB5      30.27F
MEXIA          MOSUNNY   59  27  29 N6        30.26F
HEARNE         SUNNY     63  29  28 N9        30.26F
CAMERON        HAZE      62  28  28 NE5       30.26F VSB 1
TEMPLE         SUNNY     61  27  27 N3        30.27F
KILLEEN        SUNNY     60  24  24 E6        30.25F
KILLEEN-SKYLRK SUNNY     62  28  27 E5        30.26F HAZE
FORT HOOD      SUNNY     62  26  26 NE6       30.22F
GATESVILLE     MOSUNNY   61  25  25 CALM      30.27F
HAMILTON       CLOUDY    59  26  28 CALM      30.27F
$$

TXZ095>097-106>112-122>126-135>138-148>153-164>167-192200-
EAST TEXAS

CITY           SKY/WX    TMP DP  RH WIND       PRES   REMARKS
PARIS          SUNNY     59  25  27 NE8       30.25F
SULPHUR SPRNGS   N/A     62  25  24 NE3       30.27F HAZE
MOUNT PLEASANT SUNNY     60  27  28 E3        30.25F
GILMER         CLOUDY    59  27  29 N5        30.24F
MINEOLA        SUNNY     61  25  25 NE5       30.25F
TYLER          MOSUNNY   62  24  23 N8        30.24F
LONGVIEW       NOT AVBL
MARSHALL       SUNNY     60  26  26 N8        30.25F
ATHENS         SUNNY     59  23  25 NE8       30.24F
PALESTINE      MOSUNNY   62  26  25 N5        30.26S
JACKSONVILLE   MOSUNNY   60  28  30 N3        30.25F
HENDERSON      SUNNY     62  28  27 NE12      30.24F
CENTER         CLEAR     60  22  22 N10       30.23F
NACOGDOCHES    SUNNY     63  27  25 N8        30.23F
LUFKIN         MOSUNNY   63  28  26 N3        30.23F
$$

SUPPLEMENTAL OBSERVATIONS (NWS FORT WORTH AREA)

CITY           SKY/WX    TMP DP  RH WIND       PRES   REMARKS
$$

SUPPLEMENTAL OBSERVATIONS (NWS NORMAN AREA)

CITY           SKY/WX    TMP DP  RH WIND       PRES   REMARKS
GOODLETT         N/A     64  15  15 S14G21    30.21F
ODELL            N/A     62  20  19 S12       30.24F
CROWELL          N/A     62  18  18 S12       30.24F
KNOX CITY        N/A     62  17  17 S8        30.26F
SEYMOUR          N/A     62  20  19 S10       30.25F
$$

SUPPLEMENTAL OBSERVATIONS (NWS SAN ANGELO AREA)

CITY           SKY/WX    TMP DP  RH WIND       PRES   REMARKS
WEINERT          N/A     62  20  20 S9        30.26F
HASKELL          N/A     60  17  18 SW7       30.26F
THROCKMORTON     N/A     63  27  25 S2        30.26F
STAMFORD         N/A     60  22  23 S7        30.26F
CLYDE            N/A     61  24  24 S7        30.26F
$$

SUPPLEMENTAL OBSERVATIONS (NWS SHREVEPORT AREA)

CITY           SKY/WX    TMP DP  RH WIND       PRES   REMARKS
$$

SUPPLEMENTAL OBSERVATIONS ARE A COLLECTION OF AUTOMATED INSTRUMENTS
THAT ARE MAINTAINED BY A VARIETY OF FEDERAL AND STATE AGENCIES.
CERTAIN ELEMENTS...SUCH AS HUMIDITY VALUES AND SUSTAINED WIND
SPEEDS...MAY BE APPROXIMATED.




USA.gov is the U.S. government's official web portal to all federal, state and local government web resources and services.